Content
SEND FEEDBACK

Daily
Averages
Monthly
Summary
United States of America

MONTELL, TEXAS


Home > North America > United States > Texas
Elevation: 1300 feet     Latitude: 29 32N     Longitude: 100 01W

WEATHER
 
SELECT A DAY
Number of Records: 256,110;   Date Range: 10/9/03 - 9/20/14
 
SHARE

PRINT THIS DATA

[ ← Previous Day ]
WEATHER ALMANAC - JANUARY 31, 2013
[ Next Day → ]
[ °C ]   °F
Weather ElementAverageHighLow
Temperature49.7 °F68 °F (2:15 pm)32.5 °F (3:35 am)
Dewpoint18.3 °F27 °F (9:15 am)13.5 °F (10:35 am)
Humidity34 %66 % (7:55 am)13 % (2:15 pm)
Barometer30.25 in30.33 in (10:15 am)30.18 in (4:55 pm)
Wind Speed3.4 mph12.7 mph (1:35 pm)
Wind Gust18.4 mph (2:15 pm)
Weather ElementAverage
Visibility10 mi
Wind DirectionE (89 °)

Weather ElementTotal
Precipitation---
Heating Degree Days14.8 (Base 65)
Growing Degree Days0.3 (Base 50)
Averaged from 71 records on January 31, 2013
WEATHER CONDITIONS BREAKOUT
WIND DIRECTION BREAKOUT
WEATHER BY HOUR - JANUARY 31, 2013
[ °C ]   °F
Local TimeTemperatureDewpointHumidityBarometerVisibilityWind DirectionWind SpeedGust SpeedPrecipitationEventsConditions
12:35 AM37.6 °F15.4 °F41 %30.24 in10.0 miCalmClear
12:55 AM37.4 °F16.2 °F42 %30.23 in10.0 miNorth (360°)4.6 mphClear
1:15 AM35.1 °F16.3 °F47 %30.24 in10.0 miCalmClear
1:35 AM35.1 °F17.1 °F48 %30.24 in10.0 miCalmClear
1:55 AM35.1 °F15.4 °F45 %30.24 in10.0 miCalmClear
2:15 AM35.2 °F17.6 °F49 %30.25 in10.0 miCalmClear
2:35 AM35.2 °F18.3 °F50 %30.24 in10.0 miCalmClear
2:55 AM34.9 °F19.6 °F54 %30.25 in10.0 miCalmClear
3:15 AM32.7 °F18.3 °F55 %30.25 in10.0 miCalmClear
3:35 AM32.5 °F18.5 °F56 %30.24 in10.0 miCalmClear
3:55 AM32.5 °F18.7 °F57 %30.25 in10.0 miCalmClear
4:15 AM32.5 °F19.0 °F58 %30.25 in10.0 miCalmClear
4:35 AM32.5 °F18.1 °F55 %30.25 in10.0 miCalmClear
4:55 AM32.5 °F19.2 °F58 %30.25 in10.0 miCalmClear
5:15 AM32.5 °F19.4 °F58 %30.25 in10.0 miCalmClear
5:35 AM32.5 °F19.0 °F58 %30.25 in10.0 miCalmClear
5:55 AM32.5 °F20.1 °F60 %30.26 in10.0 miCalmClear
6:15 AM32.5 °F19.4 °F58 %30.26 in10.0 miCalmClear
6:35 AM32.5 °F20.1 °F60 %30.26 in10.0 miCalmClear
6:55 AM32.5 °F20.3 °F61 %30.27 in10.0 miCalmClear
7:15 AM32.5 °F20.7 °F62 %30.27 in10.0 miCalmClear
7:35 AM32.5 °F20.5 °F61 %30.28 in10.0 miCalmClear
7:55 AM32.5 °F22.3 °F66 %30.28 in10.0 miCalmClear
8:15 AM33.1 °F23.0 °F66 %30.29 in10.0 miCalmClear
8:35 AM37.6 °F23.7 °F57 %30.30 in10.0 miCalmClear
8:55 AM40.3 °F24.4 °F53 %30.30 in10.0 miCalmClear
9:15 AM46.6 °F27.0 °F46 %30.30 in10.0 miCalmClear
9:35 AM50.0 °F16.7 °F27 %30.30 in10.0 miCalmClear
9:55 AM52.7 °F15.3 °F23 %30.32 in10.0 miSW (230°)5.8 mphClear
10:15 AM52.7 °F18.0 °F25 %30.33 in10.0 miSSW (200°)6.9 mphClear
10:35 AM55.4 °F13.5 °F19 %30.33 in10.0 miSSW (210°)10.4 mphClear
10:55 AM55.4 °F13.8 °F19 %30.32 in10.0 miSSW (210°)8.1 mphClear
11:15 AM55.6 °F14.4 °F20 %30.33 in10.0 miSW (220°)5.8 mphClear
11:35 AM57.7 °F15.6 °F19 %30.32 in10.0 miCalmClear
11:55 AM58.5 °F14.4 °F18 %30.31 in10.0 miSSW (210°)10.4 mphClear
12:15 PM58.8 °F15.3 °F18 %30.31 in10.0 miSSW (210°)5.8 mphClear
12:35 PM60.3 °F14.0 °F16 %30.30 in10.0 miSSW (210°)8.1 mphClear
12:55 PM61.3 °F15.3 °F17 %30.28 in10.0 miSouth (190°)6.9 mphClear
1:15 PM62.1 °F15.1 °F16 %30.26 in10.0 miSSW (210°)4.6 mphClear
1:35 PM65.3 °F16.5 °F15 %30.25 in10.0 miSSW (210°)12.7 mph16.1 mphClear
1:55 PM65.3 °F14.4 °F14 %30.23 in10.0 miSW (230°)6.9 mphClear
2:15 PM68.0 °F15.8 °F13 %30.21 in10.0 miSouth (190°)11.5 mph18.4 mphClear
2:35 PM68.0 °F14.9 °F13 %30.21 in10.0 miSouth (190°)5.8 mph17.3 mphClear
2:55 PM68.0 °F15.3 °F13 %30.20 in10.0 miSouth (180°)10.4 mphClear
3:15 PM68.0 °F14.7 °F13 %30.20 in10.0 miSSW (200°)8.1 mph18.4 mphClear
3:35 PM68.0 °F14.5 °F13 %30.20 in10.0 miSW (220°)8.1 mphClear
3:55 PM68.0 °F15.4 °F13 %30.20 in10.0 miSouth (190°)11.5 mphClear
4:15 PM68.0 °F15.8 °F13 %30.19 in10.0 miSouth (190°)11.5 mphClear
4:35 PM68.0 °F16.0 °F14 %30.20 in10.0 miSouth (180°)5.8 mphClear
4:55 PM68.0 °F15.4 °F13 %30.18 in10.0 miSSW (200°)8.1 mphClear
5:15 PM68.0 °F16.2 °F14 %30.18 in10.0 miSouth (180°)5.8 mphClear
5:35 PM67.6 °F17.8 °F15 %30.18 in10.0 miSouth (170°)8.1 mphClear
5:55 PM65.3 °F18.0 °F16 %30.20 in10.0 miSouth (190°)4.6 mphClear
6:15 PM62.2 °F17.6 °F18 %30.20 in10.0 miSouth (180°)3.5 mphClear
6:35 PM60.4 °F17.2 °F19 %30.21 in10.0 miSouth (170°)3.5 mphClear
6:55 PM60.3 °F17.8 °F19 %30.22 in10.0 miCalmClear
7:15 PM57.7 °F19.9 °F23 %30.23 in10.0 miSouth (170°)5.8 mphClear
7:35 PM57.7 °F19.9 °F23 %30.23 in10.0 miSouth (180°)3.5 mphClear
7:55 PM57.7 °F17.1 °F20 %30.25 in10.0 miCalmClear
8:15 PM55.8 °F18.1 °F23 %30.25 in10.0 miCalmClear
8:35 PM55.4 °F20.5 °F26 %30.25 in10.0 miESE (110°)3.5 mphClear
8:55 PM54.5 °F21.0 °F27 %30.26 in10.0 miCalmClear
9:15 PM52.7 °F21.2 °F29 %30.27 in10.0 miCalmClear
9:35 PM52.5 °F21.9 °F30 %30.27 in10.0 miESE (120°)3.5 mphClear
9:55 PM50.5 °F20.7 °F31 %30.27 in10.0 miCalmClear
10:15 PM52.7 °F20.8 °F29 %30.27 in10.0 miCalmClear
10:35 PM52.7 °F22.1 °F30 %30.28 in10.0 miCalmClear
10:55 PM50.2 °F22.6 °F34 %30.27 in10.0 miEast (100°)3.5 mphClear
11:15 PM47.7 °F23.2 °F38 %30.27 in10.0 miNE (50°)5.8 mphClear
11:35 PM45.7 °F23.9 °F42 %30.28 in10.0 miNE (40°)5.8 mphClear
11:55 PM47.7 °F24.1 °F40 %30.28 in10.0 miNNE (20°)4.6 mphClear
Hourly data recorded from KUVA, located miles away from Montell, Texas







STORIES FROM OUR PARTNERS